Weather Service Report


983 
ASUS45 KTFX 090810
RWRMT 
MONTANA REGIONAL WEATHER ROUNDUP
NATIONAL WEATHER SERVICE GREAT FALLS MT
100 AM MST FRI DEC 09 2016

NOTE: "FAIR" INDICATES FEW OR NO CLOUDS BELOW 12000 FEET WITH NO
SIGNIFICANT WEATHER AND/OR OBSTRUCTIONS TO VISIBILITY.

MTZ001>007-043-090900-
WEST OF THE DIVIDE
  
CITY           SKY/WX    TMP DP  RH WIND       PRES   REMARKS
KALISPELL      PTCLDY     5  -6  60 N17       30.20F WCI -14          
MISSOULA       LGT SNOW  13  10  88 W3        30.16F FOG              
BUTTE          LGT SNOW   6   1  80 S8        30.01R WCI  -7          
MULLAN PASS    LGT SNOW   2  -2  83 SE10G20   29.87F FOG     WCI -14  
ANACONDA         N/A      7   1  78 NE5       30.04R                  
DEER LODGE       N/A      3  -2  78 NW10      30.10R WCI -12          
EUREKA           N/A     -9 -15  77 CALM      30.29S                  
HAMILTON         N/A     12   9  85 N5        30.11S                  
LIBBY            N/A      9   3  78 CALM      30.25R                  
RONAN            N/A     12   5  73 N6        30.17F WCI   3          
$$

MTZ008-052>055-090900-
SOUTHWEST MONTANA
  
CITY           SKY/WX    TMP DP  RH WIND       PRES   REMARKS
BOZEMAN        LGT SNOW   6   2  83 W7        30.14R FOG     WCI  -6  
DILLON         LGT SNOW   6   1  80 NE8       30.03R WCI  -7          
W YELLOWSTONE  LGT SNOW   7   3  85 CALM      29.99F                  
ENNIS          CLOUDY     7   3  85 N8        30.05S FOG     WCI  -6  
THREE FORKS      N/A      4 -37  13 NW6       30.13R WCI  -7          
TWIN BRIDGES     N/A      6  -4  63 N13       30.04R WCI -10          
$$

MTZ009-010-012-014-046-048-049-054-090900-
EAST SLOPES AND CENTRAL MONTANA
  
CITY           SKY/WX    TMP DP  RH WIND       PRES   REMARKS
CUT BANK       CLOUDY    -5  -8  87 E6        30.28F WCI -18          
GREAT FALLS    CLOUDY    -3  -7  82 NE5       30.29F                  
MALMSTROM AFB  CLOUDY    -3  -6  87 NE7       30.32F WCI -17          
HELENA         LGT SNOW   1  -5  75 W6        30.24R WCI -10          
AUGUSTA        FLURRIES  -5  -9  85 E3        30.21S                  
BOWMANS CRNR   FLURRIES  -6  -9  86 NE3       30.21R                  
CHOTEAU          N/A     -4  -8  84 MISG      30.29S                  
FAIRFIELD      FLURRIES  -5 -10  79 E3        30.27S                  
POWER          CLOUDY    -6 -10  83 N2        30.28F                  
RAYNESFORD     FLURRIES  -4  -8  83 W3        30.25F                  
ULM            CLOUDY    -3  -8  82 N6        30.31S WCI -16          
$$

MTZ011-013-016-021-045-047-050-051-090900-
NORTH CENTRAL MONTANA
  
CITY           SKY/WX    TMP DP  RH WIND       PRES   REMARKS
HAVRE          CLOUDY    -2  -6  83 NE5       30.45S                  
LEWISTOWN      CLOUDY    -4  -8  83 SE6       30.22S WCI -16          
N BAR RANCH    FLURRIES  -6 -11  77 CALM      30.23S                  
CHINOOK          N/A      1  -4  78 E6        30.48R WCI -10          
DENTON         MOCLDY    -3  -7  85 MISG      30.26S                  
GEYSER         FLURRIES  -3  -6  84 E6        30.24S WCI -15          
GRASS RANGE    FLURRIES  -4  -8  85 CALM      30.25S                  
JUDITH GAP     LGT SNOW   1  -4  81 S13       30.15F WCI -17          
ROY              N/A     -5  -8  84 MISG      30.30S                  
STANFORD       CLOUDY    -4  -7  87 N6        30.20S WCI -16          
WINIFRED         N/A     -4  -8  86 MISG      30.28S                  
$$

MTZ017>020-022>027-061-062-090900-
NORTHEAST MONTANA
  
CITY           SKY/WX    TMP DP  RH WIND       PRES   REMARKS
GLASGOW        CLEAR     -6 -11  79 E9        30.48F WCI -23          
JORDAN           N/A     -1  -6  79 E3        30.43S                  
SIDNEY         CLOUDY   -15 -20  78 N3        30.56F                  
WOLF POINT     CLOUDY   -12 -18  74 NE6       30.55F WCI -26          
PLENTYWOOD       N/A    -11 -17  77 CALM      30.52S                  
POPLAR           N/A    -13 -18  77 CALM      30.57F                  
$$

MTZ028>42-056>058-090900-
SOUTHCENTRAL AND SOUTHEAST MONTANA
  
CITY           SKY/WX    TMP DP  RH WIND       PRES   REMARKS
BAKER          CLOUDY   -12 -18  74 E6        30.40F WCI -26          
BILLINGS       CLOUDY     2  -3  80 NE10      30.24F WCI -14          
LIVINGSTON     LGT SNOW   4  -1  80 E12       30.14S WCI -12          
MILES CITY     CLOUDY    -5 -10  79 NE10      30.41F WCI -23          
BIG TIMBER     CLOUDY     3   0  85 NE6       30.19S WCI  -8          
FORSYTH          N/A     -2  -8  78 E6        30.38F WCI -14          
HARLOWTON      LGT SNOW   1  -3  84 SE6       30.19F WCI -10          
LAUREL           N/A      4  -7  60 N5        30.19F                  
$$

REGIONAL REPORTS...DAKOTAS
  
CITY           SKY/WX    TMP DP  RH WIND       PRES   REMARKS
WILLISTON      CLOUDY   -16 -20  82 CALM      30.56F                  
MINOT          CLOUDY    -6 -11  79 W12       30.55S WCI -25          
DICKINSON      CLOUDY   -11 -16  78 NW3       30.44F                  
BEACH          MOCLDY   -17 -22  76 CALM      30.47F                  
CROSBY           N/A    -11 -15  84 W7        30.57F WCI -26          
TIOGA          MOCLDY   -15 -18  84 W7        30.52F WCI -31          
WATFORD CITY     N/A    -20 -26  76 CALM      30.54F                  
BISMARCK       CLOUDY    -8 -11  86 W5        30.59S                  
GRAND FORKS    FLURRIES   8   1  73 NW9       30.58S WCI  -5          
FARGO          CLOUDY     8   2  76 MISG      30.59S                  
BUFFALO SD       N/A     -9 -14  78 NE3       30.30F                  
RAPID CITY     CLOUDY     2  -4  76 SE6       30.34F WCI  -9          
$$

REGIONAL REPORTS...WYOMING/IDAHO/WASHINGTON
  
CITY           SKY/WX    TMP DP  RH WIND       PRES   REMARKS
GILLETTE       CLOUDY    -2  -7  79 E5        30.14F                  
SHERIDAN       CLOUDY     2  -4  76 NW5       30.20F                  
BUFFALO WY     CLOUDY     0  -5  79 N7        30.09F WCI -13          
CODY           CLOUDY     1  -4  79 CALM      30.08F                  
YELLOWSTONE LA   N/A      7   5  91 CALM      29.95F                  
IDAHO FALLS    CLOUDY    17  14  88 N7        30.10R WCI   8          
SALMON         CLOUDY    12  10  92 CALM      30.10R                  
BOISE          CLOUDY    27  24  89 N9        30.12R WCI  18          
SPOKANE        FLURRIES  19   5  54 E13       30.10S WCI   6          
$$

REGIONAL REPORTS...ALBERTA
  
CITY           SKY/WX    TMP DP  RH WIND       PRES   REMARKS
EDMONTON       CLOUDY   -13 -20  70 E3        30.54S                  
CALGARY        CRYSTALS  -6 -11  77 SE7       30.33S WCI -20          
LETHBRIDGE     FLURRIES  -4  -9  77 NE3       30.40F                  
MEDICINE HAT   FLURRIES  -8 -11  84 NE3       30.51S                  
WATERTON GATE    N/A    -11 -17  77 E2          N/A                   
CARDSTON         N/A     -9 -15  77 N1          N/A                   
MILK RIVER       N/A     -6 -11  77 E2          N/A                   
ONEFOUR          N/A     -6  -9  84 E6          N/A  WCI -18          
$$

REGIONAL REPORTS...SASKATCHEWAN
  
CITY           SKY/WX    TMP DP  RH WIND       PRES   REMARKS
SWIFT CURRENT  FLURRIES  -6  -9  84 CALM      30.46S                  
REGINA         CLEAR    -17 -22  76 NW6       30.56F WCI -31          
SASKATOON      CRYSTALS -13 -18  77 N6        30.64S WCI -27          
CYPRESS HILLS    N/A    -11 -17  77 SE3         N/A                   
VAL MARIE        N/A    -13 -18  77 NE3         N/A                   
ROCKGLEN         N/A     -6  -9  84 N3          N/A                   
ASSINIBOIA       N/A     -4  -9  77 E5          N/A                   
$$
  

Return to Home page


Western Regional Climate Center, wrcc@dri.edu